sat.trackr.live / text

‹ back to catalog

STARLINK-32355

NORAD 61634 · 2024-191P

PAYLOAD ACTIVE UNKNOWN

§ Identity

Operator
Country
US
Launch date
2024-10-23
Launch site
AFETR
Launch vehicle
Mass (kg)
RCS (m²)

Purposes: comms

External: N2YO · Heavens-Above · Gunter

§ Orbital elements

Epoch: 2026-09-21T00:08:09.762720Z

Period
94.27 min
Inclination
43.0016°
Eccentricity
0.0000955
Mean motion
15.27577400 rev/d
Perigee alt
482.4 km
Apogee alt
483.7 km
Semi-major
6,861.2 km
B*
-3.7250e-6
RAAN
135.2541°
Arg perigee
265.8166°
Mean anomaly
94.2576°
Rev number
10,736

§ Raw data

STARLINK-323551 61634U 24191P   26264.00566855 -.00000364  00000+0 -37250-5 0  99982 61634  43.0016 135.2541 0000955 265.8166  94.2576 15.27577400107368

JSON: /api/v1/satellites/61634 · /tle

For live sub-satellite position, see the globe view (requires WebGL).

§ Visibility from observer

Set your observer location to see the next 7 days of passes ≥ 10°. The values pass through the URL so the page stays shareable.

No JS? Fill the form by hand. The geolocation button needs JavaScript.